| time (UTC) | temp C | wind direction | speed KPH | gust KPH | rain 1hr cm | rain 24hr cm | rain mn cm | humidity % | barometer mb |
| 20260503181556 | 22 | 128 | 1.6 | 8.0 | 0.00 | 0.00 | 0.00 | 34 | 1020.6 |
| 20260503180049 | 22 | 134 | 1.6 | 6.4 | 0.00 | 0.00 | 0.00 | 33 | 1020.7 |
| 20260503174551 | 22 | 176 | 1.6 | 4.8 | 0.00 | 0.00 | 0.00 | 36 | 1020.7 |
| 20260503173044 | 21 | 70 | 3.2 | 4.8 | 0.00 | 0.00 | 0.00 | 39 | 1020.5 |
| 20260503171608 | 21 | 111 | 1.6 | 4.8 | 0.00 | 0.00 | 0.00 | 38 | 1020.6 |
| 20260503160108 | 13 | 51 | 0.0 | 3.2 | 0.00 | 0.00 | 0.00 | 74 | 1020.7 |
| 20260503090120 | 8 | 10 | 0.0 | 1.6 | 0.00 | 0.00 | 0.00 | 78 | 1021.5 |
| 20260503080109 | 8 | 11 | 0.0 | 1.6 | 0.00 | 0.00 | 0.00 | 80 | 1021.7 |
| 20260503071606 | 8 | 10 | 0.0 | 1.6 | 0.00 | 0.00 | 0.00 | 81 | 1021.6 |
| 20260503054602 | 9 | 10 | 0.0 | 1.6 | 0.00 | 0.00 | 0.00 | 81 | 1021.5 |
| 20260503053051 | 9 | 10 | 0.0 | 3.2 | 0.00 | 0.00 | 0.00 | 82 | 1021.6 |
| 20260503051557 | 10 | 10 | 0.0 | 1.6 | 0.00 | 0.00 | 0.00 | 83 | 1021.6 |
| 20260503044607 | 10 | 10 | 0.0 | 1.6 | 0.00 | 0.00 | 0.00 | 80 | 1021.6 |
| 20260503043051 | 10 | 11 | 0.0 | 3.2 | 0.00 | 0.00 | 0.00 | 78 | 1021.3 |
| 20260503041550 | 10 | 350 | 0.0 | 3.2 | 0.00 | 0.00 | 0.00 | 76 | 1021.3 |
| 20260503040109 | 11 | 352 | 0.0 | 1.6 | 0.00 | 0.00 | 0.00 | 72 | 1020.9 |
| 20260503034557 | 11 | 352 | 0.0 | 1.6 | 0.00 | 0.00 | 0.00 | 69 | 1020.9 |
| 20260503033101 | 12 | 352 | 0.0 | 3.2 | 0.00 | 0.00 | 0.00 | 68 | 1020.7 |
| 20260503031558 | 12 | 352 | 1.6 | 3.2 | 0.00 | 0.00 | 0.00 | 68 | 1020.4 |
| 20260503030056 | 12 | 352 | 0.0 | 3.2 | 0.00 | 0.00 | 0.00 | 65 | 1020.2 |
| 20260503024554 | 13 | 352 | 0.0 | 1.6 | 0.00 | 0.00 | 0.00 | 64 | 1020.2 |
| 20260503023047 | 13 | 352 | 0.0 | 3.2 | 0.00 | 0.00 | 0.00 | 62 | 1020.0 |
| 20260503021557 | 15 | 352 | 0.0 | 3.2 | 0.00 | 0.00 | 0.00 | 61 | 1020.0 |
| 20260503020058 | 15 | 352 | 1.6 | 3.2 | 0.00 | 0.00 | 0.00 | 58 | 1019.9 |
| 20260503014548 | 16 | 352 | 0.0 | 1.6 | 0.00 | 0.00 | 0.00 | 56 | 1020.2 |
| 20260503013049 | 17 | 352 | 0.0 | 3.2 | 0.00 | 0.00 | 0.00 | 55 | 1020.0 |
| 20260503011614 | 17 | 360 | 1.6 | 3.2 | 0.00 | 0.00 | 0.00 | 51 | 1019.9 |
| 20260503010109 | 18 | 360 | 0.0 | 3.2 | 0.00 | 0.00 | 0.00 | 46 | 1020.1 |
| 20260503004555 | 18 | 36 | 1.6 | 3.2 | 0.00 | 0.00 | 0.00 | 47 | 1020.1 |
| 20260503003053 | 20 | 259 | 0.0 | 3.2 | 0.00 | 0.00 | 0.00 | 37 | 1020.1 |
| 20260503001553 | 20 | 197 | 1.6 | 6.4 | 0.00 | 0.00 | 0.00 | 45 | 1020.3 |
| 20260503000104 | 21 | 142 | 1.6 | 4.8 | 0.00 | 0.00 | 0.00 | 43 | 1020.3 |
| 20260502234600 | 21 | 248 | 1.6 | 6.4 | 0.00 | 0.00 | 0.00 | 36 | 1020.2 |
| 20260502233055 | 21 | 90 | 1.6 | 6.4 | 0.00 | 0.00 | 0.00 | 43 | 1020.7 |
| 20260502231554 | 22 | 170 | 1.6 | 8.0 | 0.00 | 0.00 | 0.00 | 40 | 1020.8 |
| 20260502230028 | 21 | 213 | 1.6 | 6.4 | 0.00 | 0.00 | 0.00 | 38 | 1021.1 |
| 20260502224605 | 21 | 152 | 3.2 | 9.7 | 0.00 | 0.00 | 0.00 | 39 | 1021.3 |
| 20260502223118 | 22 | 201 | 1.6 | 8.0 | 0.00 | 0.00 | 0.00 | 39 | 1021.4 |
| 20260502221723 | 21 | 88 | 1.6 | 8.0 | 0.00 | 0.00 | 0.00 | 35 | 1021.6 |
| 20260502220059 | 21 | 227 | 1.6 | 8.0 | 0.00 | 0.00 | 0.00 | 34 | 1021.7 |
| 20260502214603 | 21 | 206 | 1.6 | 6.4 | 0.00 | 0.00 | 0.00 | 40 | 1021.6 |
| 20260502213053 | 21 | 309 | 3.2 | 9.7 | 0.00 | 0.00 | 0.00 | 35 | 1021.8 |
| 20260502211712 | 21 | 181 | 3.2 | 16.1 | 0.00 | 0.00 | 0.00 | 39 | 1021.9 |
| 20260502210136 | 21 | 156 | 4.8 | 9.7 | 0.00 | 0.00 | 0.00 | 40 | 1021.6 |
| 20260502204758 | 20 | 246 | 4.8 | 12.9 | 0.00 | 0.00 | 0.00 | 40 | 1021.9 |
| 20260502203036 | 19 | 209 | 1.6 | 4.8 | 0.00 | 0.00 | 0.00 | 47 | 1021.9 |
| 20260502201548 | 19 | 334 | 1.6 | 8.0 | 0.00 | 0.00 | 0.00 | 40 | 1021.7 |
| 20260502194545 | 18 | 244 | 3.2 | 8.0 | 0.00 | 0.00 | 0.00 | 41 | 1021.8 |
| 20260502193054 | 18 | 250 | 1.6 | 11.3 | 0.00 | 0.00 | 0.00 | 43 | 1021.9 |
| 20260502191603 | 18 | 21 | 0.0 | 3.2 | 0.00 | 0.00 | 0.00 | 49 | 1022.0 |
| 20260502190057 | 18 | 138 | 0.0 | 1.6 | 0.00 | 0.00 | 0.00 | 45 | 1022.2 |
| 20260502184547 | 18 | 228 | 0.0 | 1.6 | 0.00 | 0.00 | 0.00 | 47 | 1022.2 |
| 20260502183051 | 18 | 205 | 0.0 | 8.0 | 0.00 | 0.00 | 0.00 | 52 | 1022.2 |
| 20260502181835 | 18 | 197 | 1.6 | 4.8 | 0.00 | 0.00 | 0.00 | 44 | 1021.9 |